Year,Month,Day,Hour,Minute,Value (Times are PST for temperature in C)
2014,11,06,00,00,11.00
2014,11,06,00,01,11.00
2014,11,06,00,02,11.00
2014,11,06,00,03,11.00
2014,11,06,00,04,11.00
2014,11,06,00,05,11.00
2014,11,06,00,06,11.00
2014,11,06,00,07,11.00
2014,11,06,00,08,11.00
2014,11,06,00,09,11.00
2014,11,06,00,10,11.10
2014,11,06,00,11,11.10
2014,11,06,00,12,11.10
2014,11,06,00,13,11.10
2014,11,06,00,14,11.10
2014,11,06,00,15,11.10
2014,11,06,00,16,11.10
2014,11,06,00,17,11.10
2014,11,06,00,18,11.10
2014,11,06,00,19,11.10
2014,11,06,00,20,11.10
2014,11,06,00,21,11.20
2014,11,06,00,22,11.20
2014,11,06,00,23,11.20
2014,11,06,00,24,11.20
2014,11,06,00,25,11.20
2014,11,06,00,26,11.20
2014,11,06,00,27,11.20
2014,11,06,00,28,11.20
2014,11,06,00,29,11.20
2014,11,06,00,30,11.20
2014,11,06,00,31,11.20
2014,11,06,00,32,11.20
2014,11,06,00,33,11.20
2014,11,06,00,34,11.20
2014,11,06,00,35,11.20
2014,11,06,00,36,11.20
2014,11,06,00,37,11.30
2014,11,06,00,38,11.30
2014,11,06,00,39,11.30
2014,11,06,00,40,11.30
2014,11,06,00,41,11.30
2014,11,06,00,42,11.30
2014,11,06,00,43,11.30
2014,11,06,00,44,11.30
2014,11,06,00,45,11.30
2014,11,06,00,46,11.30
2014,11,06,00,47,11.30
2014,11,06,00,48,11.30
2014,11,06,00,49,11.30
2014,11,06,00,50,11.30
2014,11,06,00,51,11.30
2014,11,06,00,52,11.30
2014,11,06,00,53,11.40
2014,11,06,00,54,11.40
2014,11,06,00,55,11.40
2014,11,06,00,56,11.40
2014,11,06,00,57,11.40
2014,11,06,00,58,11.40
2014,11,06,00,59,11.40
2014,11,06,01,00,11.40
2014,11,06,01,01,11.40
2014,11,06,01,02,11.40
2014,11,06,01,03,11.40
2014,11,06,01,04,11.40
2014,11,06,01,05,11.40
2014,11,06,01,06,11.40
2014,11,06,01,07,11.40
2014,11,06,01,08,11.40
2014,11,06,01,09,11.40
2014,11,06,01,10,11.40
2014,11,06,01,11,11.40
2014,11,06,01,12,11.30
2014,11,06,01,13,11.30
2014,11,06,01,14,11.30
2014,11,06,01,15,11.30
2014,11,06,01,16,11.30
2014,11,06,01,17,11.30
2014,11,06,01,18,11.30
2014,11,06,01,19,11.30
2014,11,06,01,20,11.30
2014,11,06,01,21,11.30
2014,11,06,01,22,11.30
2014,11,06,01,23,11.30
2014,11,06,01,24,11.30
2014,11,06,01,25,11.30
2014,11,06,01,26,11.30
2014,11,06,01,27,11.30
2014,11,06,01,28,11.30
2014,11,06,01,29,11.30
2014,11,06,01,30,11.30
2014,11,06,01,31,11.30
2014,11,06,01,32,11.30
2014,11,06,01,33,11.30
2014,11,06,01,34,11.30
2014,11,06,01,35,11.30
2014,11,06,01,36,11.30
2014,11,06,01,37,11.30
2014,11,06,01,38,11.30
2014,11,06,01,39,11.30
2014,11,06,01,40,11.30
2014,11,06,01,41,11.30
2014,11,06,01,42,11.30
2014,11,06,01,43,11.30
2014,11,06,01,44,11.40
2014,11,06,01,45,11.40
2014,11,06,01,46,11.40
2014,11,06,01,47,11.40
2014,11,06,01,48,11.40
2014,11,06,01,49,11.40
2014,11,06,01,50,11.40
2014,11,06,01,51,11.40
2014,11,06,01,52,11.40
2014,11,06,01,53,11.40
2014,11,06,01,54,11.40
2014,11,06,01,55,11.40
2014,11,06,01,56,11.40
2014,11,06,01,57,11.40
2014,11,06,01,58,11.40
2014,11,06,01,59,11.40
2014,11,06,02,00,11.40
2014,11,06,02,01,11.40
2014,11,06,02,02,11.40
2014,11,06,02,03,11.40
2014,11,06,02,04,11.40
2014,11,06,02,05,11.40
2014,11,06,02,06,11.40
2014,11,06,02,07,11.40
2014,11,06,02,08,11.40
2014,11,06,02,09,11.40
2014,11,06,02,10,11.40
2014,11,06,02,11,11.50
2014,11,06,02,12,11.50
2014,11,06,02,13,11.40
2014,11,06,02,14,11.50
2014,11,06,02,15,11.50
2014,11,06,02,16,11.50
2014,11,06,02,17,11.50
2014,11,06,02,18,11.50
2014,11,06,02,19,11.50
2014,11,06,02,20,11.50
2014,11,06,02,21,11.50
2014,11,06,02,22,11.50
2014,11,06,02,23,11.50
2014,11,06,02,24,11.60
2014,11,06,02,25,11.60
2014,11,06,02,26,11.60
2014,11,06,02,27,11.60
2014,11,06,02,28,11.60
2014,11,06,02,29,11.50
2014,11,06,02,30,11.60
2014,11,06,02,31,11.50
2014,11,06,02,32,11.50
2014,11,06,02,33,11.50
2014,11,06,02,34,11.50
2014,11,06,02,35,11.50
2014,11,06,02,36,11.50
2014,11,06,02,37,11.40
2014,11,06,02,38,11.40
2014,11,06,02,39,11.40
2014,11,06,02,40,11.40
2014,11,06,02,41,11.40
2014,11,06,02,42,11.40
2014,11,06,02,43,11.40
2014,11,06,02,44,11.40
2014,11,06,02,45,11.40
2014,11,06,02,46,11.40
2014,11,06,02,47,11.40
2014,11,06,02,48,11.40
2014,11,06,02,49,11.40
2014,11,06,02,50,11.40
2014,11,06,02,51,11.30
2014,11,06,02,52,11.30
2014,11,06,02,53,11.30
2014,11,06,02,54,11.30
2014,11,06,02,55,11.30
2014,11,06,02,56,11.30
2014,11,06,02,57,11.30
2014,11,06,02,58,11.30
2014,11,06,02,59,11.30
2014,11,06,03,00,11.30
2014,11,06,03,01,11.30
2014,11,06,03,02,11.30
2014,11,06,03,03,11.30
2014,11,06,03,04,11.30
2014,11,06,03,05,11.30
2014,11,06,03,06,11.40
2014,11,06,03,07,11.40
2014,11,06,03,08,11.40
2014,11,06,03,09,11.40
2014,11,06,03,10,11.40
2014,11,06,03,11,11.40
2014,11,06,03,12,11.40
2014,11,06,03,13,11.40
2014,11,06,03,14,11.40
2014,11,06,03,15,11.40
2014,11,06,03,16,11.40
2014,11,06,03,17,11.40
2014,11,06,03,18,11.50
2014,11,06,03,19,11.50
2014,11,06,03,20,11.50
2014,11,06,03,21,11.60
2014,11,06,03,22,11.60
2014,11,06,03,23,11.60
2014,11,06,03,24,11.60
2014,11,06,03,25,11.60
2014,11,06,03,26,11.60
2014,11,06,03,27,11.60
2014,11,06,03,28,11.70
2014,11,06,03,29,11.70
2014,11,06,03,30,11.70
2014,11,06,03,31,11.70
2014,11,06,03,32,11.70
2014,11,06,03,33,11.70
2014,11,06,03,34,11.70
2014,11,06,03,35,11.70
2014,11,06,03,36,11.70
2014,11,06,03,37,11.70
2014,11,06,03,38,11.70
2014,11,06,03,39,11.70
2014,11,06,03,40,11.70
2014,11,06,03,41,11.70
2014,11,06,03,42,11.70
2014,11,06,03,43,11.70
2014,11,06,03,44,11.80
2014,11,06,03,45,11.80
2014,11,06,03,46,11.80
2014,11,06,03,47,11.80
2014,11,06,03,48,11.80
2014,11,06,03,49,11.80
2014,11,06,03,50,11.80
2014,11,06,03,51,11.80
2014,11,06,03,52,11.90
2014,11,06,03,53,11.90
2014,11,06,03,54,11.90
2014,11,06,03,55,11.90
2014,11,06,03,56,11.90
2014,11,06,03,57,11.90
2014,11,06,03,58,11.90
2014,11,06,03,59,11.90
2014,11,06,04,00,11.90
2014,11,06,04,01,11.90
2014,11,06,04,02,11.90
2014,11,06,04,03,11.90
2014,11,06,04,04,11.90
2014,11,06,04,05,11.90
2014,11,06,04,06,11.90
2014,11,06,04,07,11.90
2014,11,06,04,08,11.90
2014,11,06,04,09,11.90
2014,11,06,04,10,11.80
2014,11,06,04,11,11.80
2014,11,06,04,12,11.80
2014,11,06,04,13,11.80
2014,11,06,04,14,11.80
2014,11,06,04,15,11.80
2014,11,06,04,16,11.70
2014,11,06,04,17,11.70
2014,11,06,04,18,11.60
2014,11,06,04,19,11.60
2014,11,06,04,20,11.50
2014,11,06,04,21,11.50
2014,11,06,04,22,11.50
2014,11,06,04,23,11.40
2014,11,06,04,24,11.40
2014,11,06,04,25,11.40
2014,11,06,04,26,11.40
2014,11,06,04,27,11.40
2014,11,06,04,28,11.40
2014,11,06,04,29,11.40
2014,11,06,04,30,11.40
2014,11,06,04,31,11.40
2014,11,06,04,32,11.40
2014,11,06,04,33,11.40
2014,11,06,04,34,11.40
2014,11,06,04,35,11.40
2014,11,06,04,36,11.40
2014,11,06,04,37,11.40
2014,11,06,04,38,11.40
2014,11,06,04,39,11.40
2014,11,06,04,40,11.50
2014,11,06,04,41,11.50
2014,11,06,04,42,11.50
2014,11,06,04,43,11.50
2014,11,06,04,44,11.50
2014,11,06,04,45,11.50
2014,11,06,04,46,11.60
2014,11,06,04,47,11.60
2014,11,06,04,48,11.60
2014,11,06,04,49,11.60
2014,11,06,04,50,11.60
2014,11,06,04,51,11.60
2014,11,06,04,52,11.60
2014,11,06,04,53,11.60
2014,11,06,04,54,11.60
2014,11,06,04,55,11.60
2014,11,06,04,56,11.60
2014,11,06,04,57,11.70
2014,11,06,04,58,11.70
2014,11,06,04,59,11.70
2014,11,06,05,00,11.70
2014,11,06,05,01,11.70
2014,11,06,05,02,11.70
2014,11,06,05,03,11.70
2014,11,06,05,04,11.70
2014,11,06,05,05,11.70
2014,11,06,05,06,11.80
2014,11,06,05,07,11.80
2014,11,06,05,08,11.80
2014,11,06,05,09,11.80
2014,11,06,05,10,11.80
2014,11,06,05,11,11.80
2014,11,06,05,12,11.80
2014,11,06,05,13,11.80
2014,11,06,05,14,11.80
2014,11,06,05,15,11.80
2014,11,06,05,16,11.80
2014,11,06,05,17,11.80
2014,11,06,05,18,11.80
2014,11,06,05,19,11.80
2014,11,06,05,20,11.80
2014,11,06,05,21,11.90
2014,11,06,05,22,11.90
2014,11,06,05,23,11.90
2014,11,06,05,24,12.00
2014,11,06,05,25,12.00
2014,11,06,05,26,12.00
2014,11,06,05,27,12.10
2014,11,06,05,28,12.10
2014,11,06,05,29,12.10
2014,11,06,05,30,12.10
2014,11,06,05,31,12.10
2014,11,06,05,32,12.10
2014,11,06,05,33,12.10
2014,11,06,05,34,12.20
2014,11,06,05,35,12.20
2014,11,06,05,36,12.20
2014,11,06,05,37,12.20
2014,11,06,05,38,12.20
2014,11,06,05,39,12.20
2014,11,06,05,40,12.20
2014,11,06,05,41,12.20
2014,11,06,05,42,12.20
2014,11,06,05,43,12.20
2014,11,06,05,44,12.20
2014,11,06,05,45,12.20
2014,11,06,05,46,12.20
2014,11,06,05,47,12.20
2014,11,06,05,48,12.30
2014,11,06,05,49,12.30
2014,11,06,05,50,12.30
2014,11,06,05,51,12.30
2014,11,06,05,52,12.30
2014,11,06,05,53,12.30
2014,11,06,05,54,12.30
2014,11,06,05,55,12.30
2014,11,06,05,56,12.30
2014,11,06,05,57,12.30
2014,11,06,05,58,12.30
2014,11,06,05,59,12.30
2014,11,06,06,00,12.30
2014,11,06,06,01,12.30
2014,11,06,06,02,12.30
2014,11,06,06,03,12.30
2014,11,06,06,04,12.30
2014,11,06,06,05,12.40
2014,11,06,06,06,12.40
2014,11,06,06,07,12.40
2014,11,06,06,08,12.30
2014,11,06,06,09,12.40
2014,11,06,06,10,12.40
2014,11,06,06,11,12.40
2014,11,06,06,12,12.40
2014,11,06,06,13,12.40
2014,11,06,06,14,12.40
2014,11,06,06,15,12.40
2014,11,06,06,16,12.40
2014,11,06,06,17,12.30
2014,11,06,06,18,12.30
2014,11,06,06,19,12.30
2014,11,06,06,20,12.20
2014,11,06,06,21,12.20
2014,11,06,06,22,12.10
2014,11,06,06,23,12.10
2014,11,06,06,24,12.10
2014,11,06,06,25,12.10
2014,11,06,06,26,12.10
2014,11,06,06,27,12.10
2014,11,06,06,28,12.20
2014,11,06,06,29,12.20
2014,11,06,06,30,12.20
2014,11,06,06,31,12.20
2014,11,06,06,32,12.30
2014,11,06,06,33,12.30
2014,11,06,06,34,12.30
2014,11,06,06,35,12.30
2014,11,06,06,36,12.30
2014,11,06,06,37,12.30
2014,11,06,06,38,12.30
2014,11,06,06,39,12.30
2014,11,06,06,40,12.30
2014,11,06,06,41,12.30
2014,11,06,06,42,12.30
2014,11,06,06,43,12.30
2014,11,06,06,44,12.30
2014,11,06,06,45,12.30
2014,11,06,06,46,12.20
2014,11,06,06,47,12.20
2014,11,06,06,48,12.20
2014,11,06,06,49,12.20
2014,11,06,06,50,12.20
2014,11,06,06,51,12.10
2014,11,06,06,52,12.10
2014,11,06,06,53,12.10
2014,11,06,06,54,12.10
2014,11,06,06,55,12.00
2014,11,06,06,56,12.00
2014,11,06,06,57,12.00
2014,11,06,06,58,12.00
2014,11,06,06,59,11.90
2014,11,06,07,00,11.90
2014,11,06,07,01,11.90
2014,11,06,07,02,12.00
2014,11,06,07,03,12.00
2014,11,06,07,04,12.00
2014,11,06,07,05,12.00
2014,11,06,07,06,12.10
2014,11,06,07,07,12.10
2014,11,06,07,08,12.10
2014,11,06,07,09,12.10
2014,11,06,07,10,12.10
2014,11,06,07,11,12.10
2014,11,06,07,12,12.10
2014,11,06,07,13,12.10
2014,11,06,07,14,12.10
2014,11,06,07,15,12.00
2014,11,06,07,16,12.00
2014,11,06,07,17,12.00
2014,11,06,07,18,12.00
2014,11,06,07,19,12.00
2014,11,06,07,20,12.00
2014,11,06,07,21,12.00
2014,11,06,07,22,12.00
2014,11,06,07,23,12.00
2014,11,06,07,24,12.00
2014,11,06,07,25,12.00
2014,11,06,07,26,12.00
2014,11,06,07,27,12.00
2014,11,06,07,28,12.10
2014,11,06,07,29,12.10
2014,11,06,07,30,12.10
2014,11,06,07,31,12.10
2014,11,06,07,32,12.10
2014,11,06,07,33,12.10
2014,11,06,07,34,12.10
2014,11,06,07,35,12.10
2014,11,06,07,36,12.10
2014,11,06,07,37,12.10
2014,11,06,07,38,12.20
2014,11,06,07,39,12.20
2014,11,06,07,40,12.20
2014,11,06,07,41,12.20
2014,11,06,07,42,12.20
2014,11,06,07,43,12.20
2014,11,06,07,44,12.20
2014,11,06,07,45,12.20
2014,11,06,07,46,12.20
2014,11,06,07,47,12.20
2014,11,06,07,48,12.20
2014,11,06,07,49,12.20
2014,11,06,07,50,12.20
2014,11,06,07,51,12.30
2014,11,06,07,52,12.30
2014,11,06,07,53,12.30
2014,11,06,07,54,12.30
2014,11,06,07,55,12.30
2014,11,06,07,56,12.30
2014,11,06,07,57,12.30
2014,11,06,07,58,12.30
2014,11,06,07,59,12.30
2014,11,06,08,00,12.30
2014,11,06,08,01,12.30
2014,11,06,08,02,12.30
2014,11,06,08,03,12.30
2014,11,06,08,04,12.30
2014,11,06,08,05,12.30
2014,11,06,08,06,12.20
2014,11,06,08,07,12.20
2014,11,06,08,08,12.20
2014,11,06,08,09,12.20
2014,11,06,08,10,12.20
2014,11,06,08,11,12.20
2014,11,06,08,12,12.20
2014,11,06,08,13,12.20
2014,11,06,08,14,12.20
2014,11,06,08,15,12.20
2014,11,06,08,16,12.20
2014,11,06,08,17,12.20
2014,11,06,08,18,12.20
2014,11,06,08,19,12.20
2014,11,06,08,20,12.20
2014,11,06,08,21,12.20
2014,11,06,08,22,12.20
2014,11,06,08,23,12.10
2014,11,06,08,24,12.20
2014,11,06,08,25,12.20
2014,11,06,08,26,12.20
2014,11,06,08,27,12.20
2014,11,06,08,28,12.30
2014,11,06,08,29,12.30
2014,11,06,08,30,12.30
2014,11,06,08,31,12.30
2014,11,06,08,32,12.30
2014,11,06,08,33,12.40
2014,11,06,08,34,12.50
2014,11,06,08,35,12.50
2014,11,06,08,36,12.50
2014,11,06,08,37,12.60
2014,11,06,08,38,12.60
2014,11,06,08,39,12.70
2014,11,06,08,40,12.70
2014,11,06,08,41,12.80
2014,11,06,08,42,12.80
2014,11,06,08,43,12.80
2014,11,06,08,44,12.80
2014,11,06,08,45,12.70
2014,11,06,08,46,12.70
2014,11,06,08,47,12.60
2014,11,06,08,48,12.60
2014,11,06,08,49,12.60
2014,11,06,08,50,12.60
2014,11,06,08,51,12.60
2014,11,06,08,52,12.60
2014,11,06,08,53,12.60
2014,11,06,08,54,12.60
2014,11,06,08,55,12.60
2014,11,06,08,56,12.60
2014,11,06,08,57,12.60
2014,11,06,08,58,12.60
2014,11,06,08,59,12.70
2014,11,06,09,00,12.70
2014,11,06,09,01,12.70
2014,11,06,09,02,12.80
2014,11,06,09,03,12.80
2014,11,06,09,04,12.80
2014,11,06,09,05,12.90
2014,11,06,09,06,12.90
2014,11,06,09,07,12.90
2014,11,06,09,08,12.90
2014,11,06,09,09,13.00
2014,11,06,09,10,13.10
2014,11,06,09,11,13.20
2014,11,06,09,12,13.30
2014,11,06,09,13,13.30
2014,11,06,09,14,13.40
2014,11,06,09,15,13.40
2014,11,06,09,16,13.50
2014,11,06,09,17,13.50
2014,11,06,09,18,13.60
2014,11,06,09,19,13.70
2014,11,06,09,20,13.70
2014,11,06,09,21,13.80
2014,11,06,09,22,13.80
2014,11,06,09,23,13.90
2014,11,06,09,24,13.90
2014,11,06,09,25,14.00
2014,11,06,09,26,14.00
2014,11,06,09,27,14.00
2014,11,06,09,28,14.10
2014,11,06,09,29,14.10
2014,11,06,09,30,14.10
2014,11,06,09,31,14.10
2014,11,06,09,32,14.20
2014,11,06,09,33,14.20
2014,11,06,09,34,14.30
2014,11,06,09,35,14.30
2014,11,06,09,36,14.30
2014,11,06,09,37,14.30
2014,11,06,09,38,14.30
2014,11,06,09,39,14.30
2014,11,06,09,40,14.30
2014,11,06,09,41,14.30
2014,11,06,09,42,14.30
2014,11,06,09,43,14.30
2014,11,06,09,44,14.30
2014,11,06,09,45,14.30
2014,11,06,09,46,14.30
2014,11,06,09,47,14.30
2014,11,06,09,48,14.30
2014,11,06,09,49,14.30
2014,11,06,09,50,14.30
2014,11,06,09,51,14.30
2014,11,06,09,52,14.30
2014,11,06,09,53,14.30
2014,11,06,09,54,14.30
2014,11,06,09,55,14.30
2014,11,06,09,56,14.30
2014,11,06,09,57,14.30
2014,11,06,09,58,14.30
2014,11,06,09,59,14.30
2014,11,06,10,00,14.40
2014,11,06,10,01,14.30
2014,11,06,10,02,14.40
2014,11,06,10,03,14.40
2014,11,06,10,04,14.50
2014,11,06,10,05,14.50
2014,11,06,10,06,14.60
2014,11,06,10,07,14.60
2014,11,06,10,08,14.60
2014,11,06,10,09,14.50
2014,11,06,10,10,14.60
2014,11,06,10,11,14.60
2014,11,06,10,12,14.60
2014,11,06,10,13,14.60
2014,11,06,10,14,14.70
2014,11,06,10,15,14.70
2014,11,06,10,16,14.80
2014,11,06,10,17,14.80
2014,11,06,10,18,14.80
2014,11,06,10,19,14.90
2014,11,06,10,20,14.90
2014,11,06,10,21,14.90
2014,11,06,10,22,14.90
2014,11,06,10,23,14.90
2014,11,06,10,24,15.00
2014,11,06,10,25,15.00
2014,11,06,10,26,15.10
2014,11,06,10,27,15.10
2014,11,06,10,28,15.10
2014,11,06,10,29,15.10
2014,11,06,10,30,15.20
2014,11,06,10,31,15.20
2014,11,06,10,32,15.10
2014,11,06,10,33,15.10
2014,11,06,10,34,15.20
2014,11,06,10,35,15.20
2014,11,06,10,36,15.20
2014,11,06,10,37,15.20
2014,11,06,10,38,15.20
2014,11,06,10,39,15.20
2014,11,06,10,40,15.10
2014,11,06,10,41,15.10
2014,11,06,10,42,15.10
2014,11,06,10,43,15.10
2014,11,06,10,44,15.10
2014,11,06,10,45,15.10
2014,11,06,10,46,15.20
2014,11,06,10,47,15.20
2014,11,06,10,48,15.20
2014,11,06,10,49,15.20
2014,11,06,10,50,15.20
2014,11,06,10,51,15.20
2014,11,06,10,52,15.20
2014,11,06,10,53,15.20
2014,11,06,10,54,15.20
2014,11,06,10,55,15.20
2014,11,06,10,56,15.30
2014,11,06,10,57,15.30
2014,11,06,10,58,15.40
2014,11,06,10,59,15.40
2014,11,06,11,00,15.50
2014,11,06,11,01,15.50
2014,11,06,11,02,15.60
2014,11,06,11,03,15.70
2014,11,06,11,04,15.70
2014,11,06,11,05,15.70
2014,11,06,11,06,15.70
2014,11,06,11,07,15.70
2014,11,06,11,08,15.70
2014,11,06,11,09,15.60
2014,11,06,11,10,15.60
2014,11,06,11,11,15.60
2014,11,06,11,12,15.70
2014,11,06,11,13,15.80
2014,11,06,11,14,15.90
2014,11,06,11,15,16.00
2014,11,06,11,16,16.10
2014,11,06,11,17,16.10
2014,11,06,11,18,16.20
2014,11,06,11,19,16.30
2014,11,06,11,20,16.30
2014,11,06,11,21,16.40
2014,11,06,11,22,16.40
2014,11,06,11,23,16.50
2014,11,06,11,24,16.60
2014,11,06,11,25,16.60
2014,11,06,11,26,16.60
2014,11,06,11,27,16.60
2014,11,06,11,28,16.70
2014,11,06,11,29,16.90
2014,11,06,11,30,17.10
2014,11,06,11,31,17.20
2014,11,06,11,32,17.30
2014,11,06,11,33,17.40
2014,11,06,11,34,17.50
2014,11,06,11,35,17.60
2014,11,06,11,36,17.70
2014,11,06,11,37,17.70
2014,11,06,11,38,17.80
2014,11,06,11,39,17.80
2014,11,06,11,40,17.80
2014,11,06,11,41,17.80
2014,11,06,11,42,17.80
2014,11,06,11,43,17.80
2014,11,06,11,44,17.80
2014,11,06,11,45,17.80
2014,11,06,11,46,17.70
2014,11,06,11,47,17.70
2014,11,06,11,48,17.60
2014,11,06,11,49,17.60
2014,11,06,11,50,17.50
2014,11,06,11,51,17.40
2014,11,06,11,52,17.40
2014,11,06,11,53,17.30
2014,11,06,11,54,17.30
2014,11,06,11,55,17.30
2014,11,06,11,56,17.30
2014,11,06,11,57,17.30
2014,11,06,11,58,17.40
2014,11,06,11,59,17.40
2014,11,06,12,00,17.30
2014,11,06,12,01,17.30
2014,11,06,12,02,17.30
2014,11,06,12,03,17.30
2014,11,06,12,04,17.20
2014,11,06,12,05,17.20
2014,11,06,12,06,17.20
2014,11,06,12,07,17.30
2014,11,06,12,08,17.30
2014,11,06,12,09,17.30
2014,11,06,12,10,17.40
2014,11,06,12,11,17.40
2014,11,06,12,12,17.50
2014,11,06,12,13,17.60
2014,11,06,12,14,17.70
2014,11,06,12,15,17.60
2014,11,06,12,16,17.60
2014,11,06,12,17,17.60
2014,11,06,12,18,17.60
2014,11,06,12,19,17.60
2014,11,06,12,20,17.60
2014,11,06,12,21,17.50
2014,11,06,12,22,17.50
2014,11,06,12,23,17.40
2014,11,06,12,24,17.50
2014,11,06,12,25,17.50
2014,11,06,12,26,17.40
2014,11,06,12,27,17.40
2014,11,06,12,28,17.40
2014,11,06,12,29,17.40
2014,11,06,12,30,17.40
2014,11,06,12,31,17.40
2014,11,06,12,32,17.40
2014,11,06,12,33,17.30
2014,11,06,12,34,17.40
2014,11,06,12,35,17.40
2014,11,06,12,36,17.40
2014,11,06,12,37,17.50
2014,11,06,12,38,17.40
2014,11,06,12,39,17.40
2014,11,06,12,40,17.30
2014,11,06,12,41,17.30
2014,11,06,12,42,17.30
2014,11,06,12,43,17.30
2014,11,06,12,44,17.30
2014,11,06,12,45,17.20
2014,11,06,12,46,17.20
2014,11,06,12,47,17.20
2014,11,06,12,48,17.20
2014,11,06,12,49,17.20
2014,11,06,12,50,17.20
2014,11,06,12,51,17.30
2014,11,06,12,52,17.30
2014,11,06,12,53,17.40
2014,11,06,12,54,17.40
2014,11,06,12,55,17.40
2014,11,06,12,56,17.40
2014,11,06,12,57,17.40
2014,11,06,12,58,17.40
2014,11,06,12,59,17.30
2014,11,06,13,00,17.20
2014,11,06,13,01,17.20
2014,11,06,13,02,17.20
2014,11,06,13,03,17.20
2014,11,06,13,04,17.20
2014,11,06,13,05,17.10
2014,11,06,13,06,17.10
2014,11,06,13,07,17.00
2014,11,06,13,08,17.00
2014,11,06,13,09,16.90
2014,11,06,13,10,16.80
2014,11,06,13,11,16.80
2014,11,06,13,12,16.70
2014,11,06,13,13,16.70
2014,11,06,13,14,16.70
2014,11,06,13,15,16.70
2014,11,06,13,16,16.60
2014,11,06,13,17,16.60
2014,11,06,13,18,16.50
2014,11,06,13,19,16.40
2014,11,06,13,20,16.40
2014,11,06,13,21,16.30
2014,11,06,13,22,16.30
2014,11,06,13,23,16.30
2014,11,06,13,24,16.20
2014,11,06,13,25,16.20
2014,11,06,13,26,16.20
2014,11,06,13,27,16.10
2014,11,06,13,28,16.10
2014,11,06,13,29,16.00
2014,11,06,13,30,16.00
2014,11,06,13,31,15.90
2014,11,06,13,32,15.90
2014,11,06,13,33,15.90
2014,11,06,13,34,15.90
2014,11,06,13,35,15.80
2014,11,06,13,36,15.80
2014,11,06,13,37,15.80
2014,11,06,13,38,15.80
2014,11,06,13,39,15.80
2014,11,06,13,40,15.70
2014,11,06,13,41,15.70
2014,11,06,13,42,15.80
2014,11,06,13,43,15.80
2014,11,06,13,44,15.80
2014,11,06,13,45,15.80
2014,11,06,13,46,15.80
2014,11,06,13,47,15.80
2014,11,06,13,48,15.80
2014,11,06,13,49,15.80
2014,11,06,13,50,15.80
2014,11,06,13,51,15.80
2014,11,06,13,52,15.90
2014,11,06,13,53,15.90
2014,11,06,13,54,15.90
2014,11,06,13,55,15.80
2014,11,06,13,56,15.80
2014,11,06,13,57,15.80
2014,11,06,13,58,15.80
2014,11,06,13,59,15.70
2014,11,06,14,00,15.70
2014,11,06,14,01,15.70
2014,11,06,14,02,15.70
2014,11,06,14,03,15.70
2014,11,06,14,04,15.60
2014,11,06,14,05,15.60
2014,11,06,14,06,15.60
2014,11,06,14,07,15.60
2014,11,06,14,08,15.60
2014,11,06,14,09,15.60
2014,11,06,14,10,15.60
2014,11,06,14,11,15.60
2014,11,06,14,12,15.50
2014,11,06,14,13,15.50
2014,11,06,14,14,15.50
2014,11,06,14,15,15.50
2014,11,06,14,16,15.50
2014,11,06,14,17,15.40
2014,11,06,14,18,15.40
2014,11,06,14,19,15.40
2014,11,06,14,20,15.40
2014,11,06,14,21,15.40
2014,11,06,14,22,15.40
2014,11,06,14,23,15.40
2014,11,06,14,24,15.40
2014,11,06,14,25,15.40
2014,11,06,14,26,15.40
2014,11,06,14,27,15.40
2014,11,06,14,28,15.40
2014,11,06,14,29,15.30
2014,11,06,14,30,15.40
2014,11,06,14,31,15.40
2014,11,06,14,32,15.40
2014,11,06,14,33,15.50
2014,11,06,14,34,15.50
2014,11,06,14,35,15.50
2014,11,06,14,36,15.50
2014,11,06,14,37,15.50
2014,11,06,14,38,15.40
2014,11,06,14,39,15.40
2014,11,06,14,40,15.40
2014,11,06,14,41,15.30
2014,11,06,14,42,15.30
2014,11,06,14,43,15.30
2014,11,06,14,44,15.30
2014,11,06,14,45,15.30
2014,11,06,14,46,15.20
2014,11,06,14,47,15.20
2014,11,06,14,48,15.20
2014,11,06,14,49,15.20
2014,11,06,14,50,15.20
2014,11,06,14,51,15.20
2014,11,06,14,52,15.10
2014,11,06,14,53,15.10
2014,11,06,14,54,15.10
2014,11,06,14,55,15.10
2014,11,06,14,56,15.10
2014,11,06,14,57,15.10
2014,11,06,14,58,15.10
2014,11,06,14,59,15.10
2014,11,06,15,00,15.00
2014,11,06,15,01,15.00
2014,11,06,15,02,14.90
2014,11,06,15,03,14.90
2014,11,06,15,04,14.90
2014,11,06,15,05,14.90
2014,11,06,15,06,14.80
2014,11,06,15,07,14.80
2014,11,06,15,08,14.80
2014,11,06,15,09,14.70
2014,11,06,15,10,14.70
2014,11,06,15,11,14.70
2014,11,06,15,12,14.70
2014,11,06,15,13,14.70
2014,11,06,15,14,14.70
2014,11,06,15,15,14.70
2014,11,06,15,16,14.70
2014,11,06,15,17,14.70
2014,11,06,15,18,14.70
2014,11,06,15,19,14.70
2014,11,06,15,20,14.70
2014,11,06,15,21,14.70
2014,11,06,15,22,14.70
2014,11,06,15,23,14.70
2014,11,06,15,24,14.70
2014,11,06,15,25,14.70
2014,11,06,15,26,14.60
2014,11,06,15,27,14.60
2014,11,06,15,28,14.60
2014,11,06,15,29,14.60
2014,11,06,15,30,14.60
2014,11,06,15,31,14.60
2014,11,06,15,32,14.60
2014,11,06,15,33,14.60
2014,11,06,15,34,14.60
2014,11,06,15,35,14.60
2014,11,06,15,36,14.50
2014,11,06,15,37,14.50
2014,11,06,15,38,14.40
2014,11,06,15,39,14.40
2014,11,06,15,40,14.30
2014,11,06,15,41,14.30
2014,11,06,15,42,14.20
2014,11,06,15,43,14.10
2014,11,06,15,44,14.00
2014,11,06,15,45,14.00
2014,11,06,15,46,13.90
2014,11,06,15,47,13.90
2014,11,06,15,48,13.80
2014,11,06,15,49,13.80
2014,11,06,15,50,13.80
2014,11,06,15,51,13.70
2014,11,06,15,52,13.70
2014,11,06,15,53,13.70
2014,11,06,15,54,13.70
2014,11,06,15,55,13.70
2014,11,06,15,56,13.60
2014,11,06,15,57,13.60
2014,11,06,15,58,13.60
2014,11,06,15,59,13.60
2014,11,06,16,00,13.50
2014,11,06,16,01,13.50
2014,11,06,16,02,13.40
2014,11,06,16,03,13.40
2014,11,06,16,04,13.40
2014,11,06,16,05,13.40
2014,11,06,16,06,13.40
2014,11,06,16,07,13.40
2014,11,06,16,08,13.40
2014,11,06,16,09,13.40
2014,11,06,16,10,13.30
2014,11,06,16,11,13.30
2014,11,06,16,12,13.30
2014,11,06,16,13,13.30
2014,11,06,16,14,13.30
2014,11,06,16,15,13.30
2014,11,06,16,16,13.30
2014,11,06,16,17,13.30
2014,11,06,16,18,13.30
2014,11,06,16,19,13.30
2014,11,06,16,20,13.30
2014,11,06,16,21,13.30
2014,11,06,16,22,13.30
2014,11,06,16,23,13.20
2014,11,06,16,24,13.20
2014,11,06,16,25,13.20
2014,11,06,16,26,13.20
2014,11,06,16,27,13.20
2014,11,06,16,28,13.10
2014,11,06,16,29,13.00
2014,11,06,16,30,13.00
2014,11,06,16,31,12.90
2014,11,06,16,32,12.90
2014,11,06,16,33,12.90
2014,11,06,16,34,12.90
2014,11,06,16,35,12.80
2014,11,06,16,36,12.80
2014,11,06,16,37,12.80
2014,11,06,16,38,12.80
2014,11,06,16,39,12.80
2014,11,06,16,40,12.80
2014,11,06,16,41,12.90
2014,11,06,16,42,12.90
2014,11,06,16,43,12.90
2014,11,06,16,44,12.90
2014,11,06,16,45,12.80
2014,11,06,16,46,12.80
2014,11,06,16,47,12.80
2014,11,06,16,48,12.80
2014,11,06,16,49,12.80
2014,11,06,16,50,12.80
2014,11,06,16,51,12.80
2014,11,06,16,52,12.80
2014,11,06,16,53,12.80
2014,11,06,16,54,12.80
2014,11,06,16,55,12.80
2014,11,06,16,56,12.90
2014,11,06,16,57,12.90
2014,11,06,16,58,12.90
2014,11,06,16,59,13.00
2014,11,06,17,00,12.90
2014,11,06,17,01,12.90
2014,11,06,17,02,12.90
2014,11,06,17,03,12.90
2014,11,06,17,04,12.90
2014,11,06,17,05,12.90
2014,11,06,17,06,12.80
2014,11,06,17,07,12.80
2014,11,06,17,08,12.80
2014,11,06,17,09,12.80
2014,11,06,17,10,12.80
2014,11,06,17,11,12.80
2014,11,06,17,12,12.80
2014,11,06,17,13,12.90
2014,11,06,17,14,13.00
2014,11,06,17,15,13.00
2014,11,06,17,16,13.00
2014,11,06,17,17,13.00
2014,11,06,17,18,13.00
2014,11,06,17,19,13.00